BREEZE-M R/B, 28944

Orbit data source: Space-Track

BREEZE-M R/B, 28944 is space debris in HEO originally from a launch on Tue, 28 Feb 2006 UTC launched from the Tyuratam Missile And Space Complex (TTMTR). Debris objects in space refer to the collection of defunct objects orbiting the Earth. Examples of debris include non-operational satellites, rocket bodies, and fragments generated from explosions, collisions, or faulty payload assembly.

Loading next visibility...
Identifier
28944, 2006-006B
Orbit
HEO
Country
Flag of CISCIS
Related business
Manufacturer
Khrunichev
Mission
Spacecraft
Bus & Motor
BRIZ, Unknown motor
Mass
~8,500 kg wet, 1,600 kg dry
Launch date (UTC)
2006-02-28 (20 years ago)
Launch vehicle
Unknown
Launch site
Tyuratam Missile And Space Complex (TTMTR)
Object type
Payload
Rocket body
Debris
Shape & HBR
Cyl, 2.0 m
Radar Cross Section
15.135 m², Large (>1 m²)

Expand to show TLE details & history
Last TLE update: 1 day ago

TLE from 1 day ago
0 BREEZE-M R/B
1 28944U 06006B   26162.03953998 -.00000001  00000-0  00000-0 0  9994
2 28944  50.6725  89.5092 4816581 126.1981 348.0179  5.07313639357585
Epoch: 2026-06-11T00:56Z
TLE epoch observation values (Epoch: 2026-06-11T00:56:56.254Z)
Latitude
50.81086°
Longitude
-95.93334°
Altitude
1,573.45 km
Speed
8.517 km/s
True Right ascension
11h 50m 45s
True Declination
50° 39' 35"
Sunlit
Object was in daylight at epoch
Visualization orbit readout
Latitude
Unknown
Longitude
Unknown
Altitude
Unknown
Speed
Unknown
Apparent Right ascension
Unknown
Apparent Declination
Unknown
Sunlit
N/A
Visualization observer readout
Local Sidereal Time
16:50:37
Azimuth
Unknown
Elevation
Unknown
Doppler factor
Unknown
Orbital elements
Apogee altitude
14,820.762 km
Perigee altitude
1,038.066 km
Semi-major axis
14,307.551 km
Eccentricity
0.48166
Inclination
50.6725°
RAAN
89.5092°
Arg. of periapsis
126.1981°
True anomaly
322.70206°
Mean anomaly
348.0179°
Eccentric anomaly
337.42253°
Mean motion
1.26822 °/min
Orbital period
283.86 mins
BSTAR
0
Loading maneuver chart data...
Computing Atmospheric mass density...
Loading historical data...
Loading historical data...
Loading historical data...
Loading historical data...
Loading historical data...
Loading historical data...
Loading historical data...

Documentation

Showing up to 5 results
|